contact:dominique.lefevre@mio.osupytheas.fr, maurice.libes@osupytheas.fr, didier.mallarino@osupytheas.fr
Project:EMSO http://www.emso-fr.org/EMSO-France
Depth: 2436.0 m
Title:EMSO Ligure Ouest : Data MII capteur AQUADOPP
Date,Latitude,Longitude,X_East,Y_North,Z_Up,Amplitude_X,Amplitude_Y,Amplitude_Z,Batterie,SoundSpeed,Heading,Pitch,Roll,Pressure,TIS,Speed,Direction
, degrees North, degrees East, m.s-1, m.s-1,m.s-1, 1, 1, 1, Volt, m.s-1, degree, degree, degree, dbar, degree_C, m.s-1, degree
2023-08-21T00:04:02,42.805,6.029,0.032,0.005,-0.023,104.0,104.0,101.0,13.3,1505.2,346.8,-0.8,1.8,2471.532,13.29,0.032,81.1
2023-08-21T00:07:02,42.805,6.029,0.009,0.014,-0.003,104.0,104.0,102.0,13.3,1505.2,350.5,-0.8,1.8,2471.579,13.29,0.016,32.7
2023-08-21T00:10:03,42.805,6.029,-0.01,0.011,0.012,104.0,103.0,101.0,13.4,1505.2,340.4,-0.7,1.8,2471.535,13.29,0.014,317.7
2023-08-21T00:13:03,42.805,6.029,0.014,-0.025,-0.021,103.0,103.0,102.0,13.3,1505.2,350.3,-0.8,1.8,2471.532,13.29,0.028,150.7
2023-08-21T00:16:03,42.805,6.029,0.0,0.018,0.018,104.0,103.0,102.0,13.4,1505.2,339.1,-0.8,1.8,2471.488,13.29,0.018,0.0
2023-08-21T00:19:03,42.805,6.029,-0.029,0.022,-0.006,103.0,103.0,103.0,13.3,1505.2,326.9,-0.8,1.8,2471.492,13.29,0.036,307.2
2023-08-21T00:22:02,42.805,6.029,-0.002,0.001,-0.003,103.0,103.0,102.0,13.4,1505.2,330.9,-0.7,1.8,2471.466,13.29,0.002,296.6
2023-08-21T00:25:03,42.805,6.029,0.021,0.01,0.006,104.0,104.0,102.0,13.3,1505.2,346.8,-0.8,1.8,2471.504,13.29,0.023,64.5
2023-08-21T00:28:03,42.805,6.029,0.02,0.0,-0.019,104.0,104.0,101.0,13.4,1505.2,341.5,-0.8,1.8,2471.487,13.29,0.02,90.0
2023-08-21T00:31:03,42.805,6.029,0.021,0.018,0.024,104.0,104.0,102.0,13.4,1505.2,321.3,-0.7,1.8,2471.458,13.29,0.027,49.4
2023-08-21T00:34:03,42.805,6.029,0.015,0.01,0.0,103.0,104.0,101.0,13.4,1505.2,341.9,-0.7,1.8,2471.471,13.29,0.018,56.3
2023-08-21T00:37:02,42.805,6.029,-0.016,-0.008,-0.035,103.0,103.0,102.0,13.4,1505.2,341.5,-0.8,1.8,2471.466,13.29,0.017,243.4
2023-08-21T00:40:03,42.805,6.029,0.016,0.0,0.0,104.0,105.0,101.0,13.4,1505.2,345.1,-0.8,1.8,2471.499,13.29,0.016,90.0
2023-08-21T00:43:03,42.805,6.029,0.009,-0.009,0.001,104.0,104.0,102.0,13.4,1505.2,333.4,-0.8,1.8,2471.431,13.29,0.012,135.0
2023-08-21T00:46:03,42.805,6.029,-0.001,0.027,0.044,103.0,104.0,103.0,13.3,1505.2,338.4,-0.8,1.8,2471.462,13.29,0.027,357.9
2023-08-21T00:49:03,42.805,6.029,0.004,0.005,0.013,103.0,105.0,101.0,13.4,1505.2,346.4,-0.8,1.8,2471.481,13.29,0.006,38.7
2023-08-21T00:52:02,42.805,6.029,0.009,0.013,-0.002,105.0,104.0,101.0,13.4,1505.2,343.3,-0.8,1.8,2471.443,13.29,0.015,34.7
2023-08-21T00:55:03,42.805,6.029,0.001,-0.016,-0.003,102.0,106.0,101.0,13.4,1505.2,353.1,-0.8,1.8,2471.496,13.29,0.016,176.4
2023-08-21T00:58:03,42.805,6.029,0.023,0.003,-0.006,105.0,105.0,101.0,13.3,1505.2,324.5,-0.8,1.8,2471.46,13.29,0.023,82.6
2023-08-21T01:04:02,42.805,6.029,-0.004,0.003,0.001,104.0,104.0,102.0,13.4,1505.2,325.0,-0.8,1.8,2471.493,13.29,0.005,306.9
2023-08-21T01:07:02,42.805,6.029,0.015,0.022,0.016,103.0,104.0,102.0,13.4,1505.2,332.9,-0.8,1.8,2471.478,13.29,0.026,34.3
2023-08-21T01:10:03,42.805,6.029,0.007,0.011,0.02,104.0,103.0,101.0,13.3,1505.2,323.7,-0.8,1.8,2471.498,13.29,0.013,32.5
2023-08-21T01:13:03,42.805,6.029,0.012,0.0,-0.017,104.0,102.0,101.0,13.4,1505.2,333.4,-0.7,1.8,2471.466,13.29,0.012,90.0
2023-08-21T01:16:03,42.805,6.029,0.022,0.003,-0.026,103.0,105.0,101.0,13.4,1505.2,337.7,-0.8,1.8,2471.498,13.29,0.022,82.2
2023-08-21T01:19:03,42.805,6.029,0.005,0.029,-0.004,104.0,104.0,101.0,13.4,1505.2,343.0,-0.8,1.8,2471.413,13.29,0.029,9.8
2023-08-21T01:22:02,42.805,6.029,0.006,0.004,0.004,103.0,104.0,101.0,13.3,1505.2,336.9,-0.7,1.8,2471.456,13.29,0.007,56.3
2023-08-21T01:25:03,42.805,6.029,0.011,0.009,0.003,104.0,102.0,102.0,13.4,1505.2,343.3,-0.8,1.8,2471.452,13.29,0.014,50.7
2023-08-21T01:28:03,42.805,6.029,0.002,-0.008,0.004,103.0,103.0,101.0,13.4,1505.2,353.4,-0.8,1.8,2471.435,13.29,0.008,166.0
2023-08-21T01:31:03,42.805,6.029,0.007,0.004,-0.002,103.0,103.0,103.0,13.4,1505.2,322.7,-0.8,1.8,2471.456,13.29,0.008,60.3
2023-08-21T01:34:03,42.805,6.029,0.015,0.021,0.011,105.0,104.0,101.0,13.4,1505.2,329.7,-0.8,1.8,2471.442,13.29,0.025,35.5
2023-08-21T01:37:03,42.805,6.029,0.011,0.006,0.016,103.0,104.0,101.0,13.3,1505.2,343.4,-0.8,1.8,2471.425,13.29,0.012,61.4
2023-08-21T01:40:03,42.805,6.029,0.015,0.008,0.013,104.0,104.0,102.0,13.3,1505.2,334.7,-0.8,1.8,2471.44,13.29,0.017,61.9
2023-08-21T01:43:03,42.805,6.029,0.015,0.008,-0.032,104.0,103.0,102.0,13.4,1505.2,349.1,-0.8,1.9,2471.433,13.29,0.017,61.9
2023-08-21T01:46:03,42.805,6.029,0.03,0.0,-0.042,103.0,104.0,102.0,13.3,1505.2,324.4,-0.8,1.8,2471.458,13.29,0.03,90.0
2023-08-21T01:49:03,42.805,6.029,0.008,0.024,0.028,104.0,102.0,102.0,13.3,1505.2,337.1,-0.7,1.8,2471.426,13.29,0.025,18.4
2023-08-21T01:52:03,42.805,6.029,0.0,0.007,0.008,103.0,106.0,102.0,13.4,1505.2,348.2,-0.8,1.8,2471.428,13.29,0.007,0.0
2023-08-21T01:55:03,42.805,6.029,0.009,0.013,-0.041,103.0,104.0,102.0,13.4,1505.2,336.5,-0.8,1.8,2471.427,13.29,0.015,34.7
2023-08-21T01:58:03,42.805,6.029,-0.001,-0.01,0.003,105.0,104.0,100.0,13.3,1505.2,332.9,-0.8,1.8,2471.407,13.29,0.01,185.7
2023-08-21T02:04:02,42.805,6.029,0.001,-0.016,-0.026,104.0,104.0,101.0,13.4,1505.2,332.9,-0.8,1.8,2471.461,13.29,0.016,176.4
2023-08-21T02:07:02,42.805,6.029,0.002,-0.014,0.006,103.0,103.0,102.0,13.4,1505.2,334.2,-0.8,1.8,2471.463,13.29,0.014,171.9
2023-08-21T02:10:03,42.805,6.029,0.037,0.0,-0.035,103.0,103.0,102.0,13.3,1505.2,329.8,-0.7,1.8,2471.44,13.29,0.037,90.0
2023-08-21T02:13:03,42.805,6.029,0.027,-0.013,0.008,105.0,104.0,101.0,13.3,1505.2,334.4,-0.8,1.8,2471.459,13.29,0.029,115.7
2023-08-21T02:16:03,42.805,6.029,0.012,-0.008,-0.024,103.0,103.0,101.0,13.4,1505.2,349.9,-0.8,1.8,2471.451,13.29,0.014,123.7
2023-08-21T02:19:03,42.805,6.029,0.018,0.003,-0.012,103.0,104.0,102.0,13.4,1505.2,323.4,-0.8,1.8,2471.428,13.29,0.018,80.5
2023-08-21T02:22:03,42.805,6.029,0.011,0.003,-0.024,103.0,106.0,101.0,13.4,1505.2,335.8,-0.8,1.8,2471.397,13.29,0.011,74.7
2023-08-21T02:25:03,42.805,6.029,0.022,-0.006,0.013,105.0,104.0,103.0,13.4,1505.2,354.2,-0.8,1.8,2471.379,13.29,0.022,105.3
2023-08-21T02:28:03,42.805,6.029,0.023,-0.009,0.012,103.0,104.0,102.0,13.4,1505.2,344.2,-0.8,1.8,2471.425,13.29,0.024,111.4
2023-08-21T02:31:03,42.805,6.029,-0.009,-0.013,-0.032,103.0,103.0,102.0,13.4,1505.2,349.1,-0.7,1.8,2471.407,13.29,0.015,214.7
2023-08-21T02:34:03,42.805,6.029,0.003,0.009,-0.014,103.0,102.0,102.0,13.4,1505.2,328.4,-0.8,1.8,2471.382,13.29,0.009,18.4
2023-08-21T02:37:03,42.805,6.029,0.016,0.004,-0.02,103.0,104.0,100.0,13.4,1505.2,328.5,-0.8,1.8,2471.433,13.29,0.016,76.0
2023-08-21T02:40:03,42.805,6.029,0.006,-0.016,-0.013,105.0,103.0,101.0,13.4,1505.2,328.5,-0.8,1.8,2471.384,13.29,0.017,159.4
2023-08-21T02:43:03,42.805,6.029,0.012,0.017,0.011,103.0,103.0,102.0,13.3,1505.2,330.7,-0.8,1.8,2471.397,13.29,0.02,35.2
2023-08-21T02:46:03,42.805,6.029,-0.002,0.0,-0.035,103.0,103.0,102.0,13.4,1505.2,352.8,-0.8,1.8,2471.417,13.29,0.002,270.0
2023-08-21T02:49:03,42.805,6.029,0.016,-0.019,-0.002,104.0,103.0,103.0,13.4,1505.2,344.2,-0.8,1.8,2471.4,13.29,0.024,139.9
2023-08-21T02:52:03,42.805,6.029,-0.005,-0.006,0.014,104.0,104.0,102.0,13.3,1505.2,353.2,-0.8,1.8,2471.369,13.29,0.007,219.8
2023-08-21T02:55:03,42.805,6.029,0.014,-0.001,0.008,104.0,103.0,101.0,13.4,1505.2,343.5,-0.8,1.8,2471.368,13.29,0.014,94.1
2023-08-21T02:58:03,42.805,6.029,0.02,-0.015,-0.019,105.0,102.0,102.0,13.4,1505.2,345.0,-0.7,1.8,2471.415,13.29,0.025,126.9
2023-08-21T03:04:02,42.805,6.029,0.01,-0.021,-0.033,104.0,103.0,101.0,13.4,1505.2,345.0,-0.8,1.8,2471.415,13.29,0.023,154.5
2023-08-21T03:07:03,42.805,6.029,0.011,-0.021,-0.039,103.0,102.0,102.0,13.3,1505.2,326.9,-0.7,1.8,2471.447,13.29,0.023,152.4
2023-08-21T03:10:03,42.805,6.029,0.021,-0.014,-0.009,103.0,103.0,102.0,13.4,1505.2,327.1,-0.8,1.8,2471.437,13.29,0.025,123.7
2023-08-21T03:13:03,42.805,6.029,0.023,-0.018,-0.021,103.0,104.0,102.0,13.3,1505.2,342.2,-0.8,1.8,2471.385,13.29,0.029,128.0
2023-08-21T03:16:03,42.805,6.029,-0.005,0.0,0.0,104.0,104.0,101.0,13.4,1505.2,341.2,-0.7,1.8,2471.42,13.29,0.005,270.0
2023-08-21T03:19:03,42.805,6.029,0.035,-0.021,-0.005,104.0,102.0,102.0,13.3,1505.2,337.6,-0.8,1.8,2471.403,13.29,0.04,121.0
2023-08-21T03:22:03,42.805,6.029,0.013,-0.008,0.009,104.0,105.0,101.0,13.3,1505.2,340.8,-0.8,1.8,2471.399,13.29,0.015,121.6
2023-08-21T03:25:03,42.805,6.029,0.01,0.0,-0.025,103.0,102.0,103.0,13.4,1505.2,340.1,-0.8,1.8,2471.382,13.29,0.01,90.0
2023-08-21T03:28:03,42.805,6.029,0.02,-0.014,-0.022,103.0,103.0,101.0,13.4,1505.2,327.9,-0.8,1.8,2471.394,13.29,0.024,125.0
2023-08-21T03:31:03,42.805,6.029,0.003,0.0,-0.021,103.0,103.0,102.0,13.4,1505.2,330.9,-0.8,1.8,2471.397,13.29,0.003,90.0
2023-08-21T03:34:03,42.805,6.029,0.01,-0.007,0.025,103.0,104.0,102.0,13.4,1505.2,321.1,-0.8,1.9,2471.368,13.29,0.012,125.0
2023-08-21T03:37:03,42.805,6.029,0.01,-0.001,-0.053,102.0,103.0,101.0,13.4,1505.2,350.3,-0.8,1.8,2471.363,13.29,0.01,95.7
2023-08-21T03:40:03,42.805,6.029,0.022,-0.019,-0.025,104.0,103.0,102.0,13.4,1505.2,342.6,-0.8,1.8,2471.389,13.29,0.029,130.8
2023-08-21T03:43:03,42.805,6.029,0.013,-0.014,-0.032,103.0,103.0,102.0,13.4,1505.2,351.7,-0.8,1.8,2471.381,13.29,0.019,137.1
2023-08-21T03:46:03,42.805,6.029,0.022,-0.017,-0.037,103.0,102.0,103.0,13.4,1505.2,328.2,-0.8,1.8,2471.368,13.29,0.027,127.7
2023-08-21T03:49:03,42.805,6.029,0.022,-0.008,-0.009,102.0,104.0,102.0,13.4,1505.2,346.2,-0.8,1.8,2471.394,13.29,0.023,110.0
2023-08-21T03:52:03,42.805,6.029,0.024,-0.034,-0.016,105.0,102.0,102.0,13.4,1505.2,331.8,-0.8,1.8,2471.379,13.29,0.041,144.8
2023-08-21T03:55:03,42.805,6.029,0.021,-0.008,-0.021,104.0,103.0,101.0,13.4,1505.2,335.2,-0.8,1.8,2471.383,13.29,0.022,110.9
2023-08-21T03:58:03,42.805,6.029,0.027,-0.001,-0.019,103.0,104.0,102.0,13.4,1505.2,331.6,-0.8,1.8,2471.397,13.29,0.027,92.1
2023-08-21T04:04:02,42.805,6.029,0.029,-0.025,0.004,103.0,104.0,102.0,13.3,1505.2,322.0,-0.8,1.8,2471.426,13.29,0.038,130.8
2023-08-21T04:07:03,42.805,6.029,0.006,-0.005,0.0,104.0,103.0,102.0,13.4,1505.2,333.9,-0.8,1.8,2471.404,13.29,0.007,129.8
2023-08-21T04:10:03,42.805,6.029,-0.006,-0.01,-0.034,102.0,105.0,101.0,13.4,1505.2,345.7,-0.7,1.8,2471.409,13.29,0.011,211.0
2023-08-21T04:13:03,42.805,6.029,0.012,0.003,-0.011,105.0,104.0,101.0,13.4,1505.2,343.4,-0.7,1.8,2471.396,13.29,0.012,76.0
2023-08-21T04:16:03,42.805,6.029,0.02,-0.024,-0.012,103.0,104.0,101.0,13.3,1505.2,353.5,-0.8,1.8,2471.38,13.29,0.031,140.2
2023-08-21T04:19:03,42.805,6.029,0.015,0.011,0.018,105.0,103.0,102.0,13.4,1505.2,333.4,-0.7,1.8,2471.387,13.29,0.018,53.7
2023-08-21T04:22:03,42.805,6.029,0.008,-0.015,-0.018,102.0,103.0,102.0,13.4,1505.2,342.7,-0.7,1.8,2471.414,13.29,0.017,151.9
2023-08-21T04:25:03,42.805,6.029,0.012,0.008,-0.048,104.0,103.0,102.0,13.3,1505.2,319.8,-0.8,1.8,2471.393,13.29,0.014,56.3
2023-08-21T04:28:03,42.805,6.029,0.01,-0.004,-0.022,102.0,103.0,102.0,13.4,1505.2,343.7,-0.8,1.8,2471.398,13.29,0.01,111.8
2023-08-21T04:31:03,42.805,6.029,-0.012,-0.008,-0.004,103.0,103.0,102.0,13.4,1505.2,342.3,-0.8,1.8,2471.382,13.29,0.014,236.3
2023-08-21T04:34:03,42.805,6.029,0.009,-0.012,0.005,103.0,103.0,103.0,13.4,1505.2,342.2,-0.7,1.8,2471.373,13.29,0.015,143.1
2023-08-21T04:37:03,42.805,6.029,-0.001,-0.012,-0.05,104.0,103.0,102.0,13.3,1505.2,338.0,-0.8,1.8,2471.375,13.29,0.012,184.8
2023-08-21T04:40:03,42.805,6.029,0.032,-0.016,-0.053,103.0,104.0,102.0,13.4,1505.2,350.7,-0.8,1.8,2471.337,13.29,0.035,116.6
2023-08-21T04:43:03,42.805,6.029,0.008,-0.021,-0.042,103.0,103.0,102.0,13.4,1505.2,340.1,-0.7,1.8,2471.391,13.29,0.022,159.1
2023-08-21T04:46:03,42.805,6.029,0.026,-0.019,-0.016,104.0,103.0,101.0,13.4,1505.2,344.0,-0.8,1.8,2471.371,13.29,0.032,126.2
2023-08-21T04:49:03,42.805,6.029,0.004,-0.005,-0.003,103.0,103.0,103.0,13.4,1505.2,346.7,-0.8,1.8,2471.395,13.29,0.006,141.3
2023-08-21T04:52:03,42.805,6.029,0.02,-0.016,-0.022,103.0,104.0,102.0,13.3,1505.2,338.3,-0.8,1.8,2471.416,13.29,0.025,128.7
2023-08-21T04:55:03,42.805,6.029,-0.001,-0.017,-0.045,104.0,103.0,102.0,13.4,1505.2,351.5,-0.8,1.8,2471.391,13.29,0.017,183.4
2023-08-21T04:58:03,42.805,6.029,0.024,-0.018,-0.031,103.0,103.0,102.0,13.3,1505.2,326.3,-0.8,1.8,2471.369,13.29,0.03,126.9
2023-08-21T05:04:02,42.805,6.029,0.033,-0.02,-0.031,104.0,103.0,102.0,13.3,1505.2,324.0,-0.8,1.8,2471.402,13.29,0.038,121.2
2023-08-21T05:07:03,42.805,6.029,0.007,-0.02,-0.018,104.0,103.0,102.0,13.4,1505.2,328.8,-0.8,1.8,2471.439,13.29,0.021,160.7
2023-08-21T05:10:03,42.805,6.029,0.003,-0.011,-0.01,102.0,104.0,101.0,13.4,1505.2,340.4,-0.8,1.8,2471.424,13.29,0.011,164.7
2023-08-21T05:13:03,42.805,6.029,0.014,-0.004,-0.032,102.0,103.0,102.0,13.3,1505.2,320.4,-0.8,1.9,2471.386,13.29,0.014,105.9
2023-08-21T05:16:03,42.805,6.029,0.006,-0.016,-0.037,104.0,103.0,101.0,13.4,1505.2,342.9,-0.8,1.8,2471.428,13.29,0.017,159.4
2023-08-21T05:19:03,42.805,6.029,0.014,-0.009,-0.005,104.0,104.0,102.0,13.4,1505.2,332.4,-0.8,1.8,2471.432,13.29,0.016,122.7
2023-08-21T05:22:03,42.805,6.029,0.0,-0.019,-0.038,103.0,104.0,102.0,13.3,1505.2,325.3,-0.7,1.8,2471.418,13.29,0.019,180.0
2023-08-21T05:25:03,42.805,6.029,-0.007,-0.008,-0.013,104.0,104.0,102.0,13.3,1505.2,336.6,-0.8,1.8,2471.418,13.29,0.01,221.2
2023-08-21T05:28:03,42.805,6.029,0.003,-0.026,-0.025,104.0,104.0,101.0,13.3,1505.2,350.5,-0.7,1.8,2471.392,13.29,0.026,173.4
2023-08-21T05:31:03,42.805,6.029,0.009,0.0,-0.024,103.0,103.0,101.0,13.3,1505.2,335.0,-0.8,1.8,2471.424,13.29,0.009,90.0
2023-08-21T05:34:03,42.805,6.029,-0.011,0.009,0.008,104.0,103.0,101.0,13.3,1505.2,350.7,-0.8,1.8,2471.36,13.29,0.014,309.3
2023-08-21T05:37:03,42.805,6.029,0.02,0.007,-0.012,104.0,104.0,102.0,13.4,1505.2,325.7,-0.7,1.8,2471.389,13.29,0.021,70.7
2023-08-21T05:40:03,42.805,6.029,0.002,-0.003,-0.01,104.0,103.0,101.0,13.4,1505.2,329.5,-0.8,1.8,2471.423,13.29,0.003,146.3
2023-08-21T05:43:03,42.805,6.029,0.002,-0.015,0.005,103.0,104.0,103.0,13.4,1505.2,349.3,-0.8,1.8,2471.396,13.29,0.015,172.4
2023-08-21T05:46:03,42.805,6.029,0.002,-0.015,-0.023,103.0,103.0,102.0,13.4,1505.2,323.3,-0.7,1.8,2471.413,13.29,0.015,172.4
2023-08-21T05:49:03,42.805,6.029,0.02,-0.027,-0.013,103.0,103.0,102.0,13.3,1505.2,329.3,-0.8,1.8,2471.437,13.29,0.033,143.5
2023-08-21T05:52:02,42.805,6.029,0.028,-0.032,0.016,104.0,102.0,102.0,13.3,1505.2,349.1,-0.8,1.8,2471.402,13.29,0.042,138.8
2023-08-21T05:55:03,42.805,6.029,0.0,-0.021,-0.047,103.0,103.0,104.0,13.4,1505.2,341.5,-0.7,1.8,2471.36,13.29,0.021,180.0
2023-08-21T05:58:02,42.805,6.029,0.011,0.002,-0.006,104.0,103.0,101.0,13.3,1505.2,335.0,-0.8,1.9,2471.41,13.29,0.011,79.7
2023-08-21T06:04:02,42.805,6.029,0.015,-0.014,-0.014,103.0,103.0,102.0,13.3,1505.2,340.2,-0.8,1.8,2471.449,13.29,0.02,133.0
2023-08-21T06:07:03,42.805,6.029,0.003,-0.002,-0.028,103.0,104.0,102.0,13.3,1505.2,324.2,-0.8,1.8,2471.44,13.29,0.003,123.7
2023-08-21T06:10:03,42.805,6.029,-0.006,-0.032,-0.035,104.0,102.0,102.0,13.3,1505.2,342.2,-0.8,1.8,2471.48,13.29,0.032,190.6
2023-08-21T06:13:03,42.805,6.029,0.025,-0.012,0.0,104.0,103.0,102.0,13.4,1505.2,324.2,-0.8,1.8,2471.434,13.29,0.027,115.6
2023-08-21T06:16:03,42.805,6.029,0.0,-0.007,-0.006,104.0,103.0,101.0,13.4,1505.2,345.7,-0.8,1.8,2471.41,13.29,0.007,180.0
2023-08-21T06:19:03,42.805,6.029,-0.015,-0.006,-0.026,104.0,103.0,101.0,13.4,1505.2,324.8,-0.7,1.8,2471.399,13.29,0.016,248.2
2023-08-21T06:22:03,42.805,6.029,0.008,-0.004,-0.032,103.0,104.0,103.0,13.4,1505.2,351.8,-0.7,1.8,2471.416,13.29,0.008,116.6
2023-08-21T06:25:03,42.805,6.029,0.003,-0.011,-0.007,103.0,103.0,102.0,13.4,1505.2,339.5,-0.7,1.8,2471.43,13.29,0.011,164.7
2023-08-21T06:28:03,42.805,6.029,0.001,-0.011,-0.028,105.0,103.0,101.0,13.4,1505.2,343.0,-0.8,1.9,2471.428,13.29,0.011,174.8
2023-08-21T06:31:03,42.805,6.029,-0.015,0.002,0.017,104.0,103.0,101.0,13.3,1505.2,336.1,-0.8,1.8,2471.421,13.29,0.015,277.6
2023-08-21T06:34:03,42.805,6.029,-0.006,-0.004,-0.024,104.0,104.0,102.0,13.4,1505.2,348.6,-0.8,1.8,2471.424,13.29,0.007,236.3
2023-08-21T06:37:03,42.805,6.029,-0.022,0.001,-0.004,105.0,104.0,103.0,13.4,1505.2,328.8,-0.8,1.8,2471.427,13.29,0.022,272.6
2023-08-21T06:40:03,42.805,6.029,0.007,0.001,-0.01,103.0,104.0,102.0,13.3,1505.2,349.1,-0.8,1.8,2471.399,13.29,0.007,81.9
2023-08-21T06:43:03,42.805,6.029,0.007,-0.02,-0.031,104.0,104.0,102.0,13.4,1505.2,323.5,-0.8,1.8,2471.455,13.29,0.021,160.7
2023-08-21T06:46:03,42.805,6.029,0.004,-0.013,-0.016,104.0,103.0,101.0,13.4,1505.2,345.1,-0.8,1.8,2471.409,13.29,0.013,162.9
2023-08-21T06:49:03,42.805,6.029,-0.006,-0.007,-0.029,103.0,103.0,101.0,13.3,1505.2,343.3,-0.7,1.8,2471.441,13.29,0.009,220.6
2023-08-21T06:52:03,42.805,6.029,-0.002,0.011,-0.025,104.0,104.0,101.0,13.4,1505.2,345.4,-0.8,1.8,2471.423,13.29,0.011,349.7
2023-08-21T06:55:03,42.805,6.029,-0.007,-0.012,-0.038,103.0,104.0,102.0,13.3,1505.2,350.3,-0.7,1.8,2471.426,13.29,0.013,210.3
2023-08-21T06:58:03,42.805,6.029,0.014,-0.012,-0.038,102.0,106.0,102.0,13.4,1505.2,345.7,-0.8,1.8,2471.449,13.29,0.018,130.6
2023-08-21T07:04:03,42.805,6.029,-0.004,-0.031,-0.041,104.0,104.0,102.0,13.4,1505.2,353.1,-0.7,1.8,2471.481,13.29,0.031,187.3
2023-08-21T07:07:03,42.805,6.029,0.0,-0.011,-0.003,104.0,104.0,101.0,13.4,1505.2,336.8,-0.7,1.8,2471.482,13.29,0.011,180.0
2023-08-21T07:10:03,42.805,6.029,-0.008,-0.016,-0.039,103.0,104.0,102.0,13.4,1505.2,341.5,-0.8,1.8,2471.5,13.29,0.017,206.6
2023-08-21T07:13:03,42.805,6.029,0.016,-0.009,-0.026,104.0,102.0,102.0,13.4,1505.2,324.2,-0.8,1.8,2471.487,13.29,0.018,119.4
2023-08-21T07:16:03,42.805,6.029,0.0,-0.006,-0.003,104.0,104.0,101.0,13.4,1505.2,326.5,-0.8,1.8,2471.436,13.29,0.006,180.0
2023-08-21T07:19:03,42.805,6.029,0.005,0.003,-0.028,104.0,104.0,102.0,13.4,1505.2,345.3,-0.8,1.8,2471.458,13.29,0.005,59.0
2023-08-21T07:22:03,42.805,6.029,-0.001,-0.019,0.0,104.0,104.0,102.0,13.4,1505.2,327.5,-0.8,1.8,2471.468,13.29,0.019,183.0
2023-08-21T07:25:03,42.805,6.029,-0.011,-0.019,-0.015,103.0,104.0,102.0,13.4,1505.2,333.4,-0.8,1.8,2471.484,13.29,0.021,210.1
2023-08-21T07:28:03,42.805,6.029,0.02,0.012,-0.031,104.0,103.0,102.0,13.4,1505.2,319.8,-0.8,1.9,2471.437,13.29,0.023,59.0
2023-08-21T07:31:03,42.805,6.029,-0.001,0.002,0.019,104.0,103.0,102.0,13.4,1505.2,343.7,-0.8,1.8,2471.448,13.29,0.002,333.4
2023-08-21T07:34:03,42.805,6.029,-0.017,-0.01,-0.027,105.0,104.0,101.0,13.4,1505.2,349.9,-0.8,1.8,2471.469,13.29,0.019,239.5
2023-08-21T07:37:03,42.805,6.029,-0.001,-0.021,-0.02,104.0,104.0,102.0,13.4,1505.2,324.6,-0.8,1.8,2471.44,13.29,0.021,182.7
2023-08-21T07:40:03,42.805,6.029,0.003,-0.026,-0.027,101.0,103.0,102.0,13.4,1505.2,330.1,-0.8,1.8,2471.454,13.29,0.026,173.4
2023-08-21T07:43:03,42.805,6.029,0.003,-0.01,0.024,105.0,103.0,101.0,13.4,1505.2,346.2,-0.8,1.8,2471.484,13.29,0.01,163.3
2023-08-21T07:46:03,42.805,6.029,0.005,-0.03,-0.029,105.0,103.0,101.0,13.4,1505.2,340.7,-0.8,1.8,2471.5,13.29,0.03,170.5
2023-08-21T07:49:03,42.805,6.029,-0.001,-0.006,-0.013,105.0,103.0,101.0,13.4,1505.2,343.3,-0.8,1.8,2471.483,13.29,0.006,189.5
2023-08-21T07:52:03,42.805,6.029,-0.008,-0.018,-0.045,104.0,104.0,101.0,13.4,1505.2,328.1,-0.8,1.8,2471.517,13.29,0.019,204.0
2023-08-21T07:55:03,42.805,6.029,-0.02,-0.016,-0.035,104.0,102.0,102.0,13.4,1505.2,352.1,-0.8,1.8,2471.464,13.29,0.025,231.3
2023-08-21T07:58:03,42.805,6.029,0.01,-0.008,-0.016,104.0,103.0,102.0,13.4,1505.2,339.3,-0.7,1.8,2471.5,13.29,0.012,128.7
2023-08-21T08:04:03,42.805,6.029,-0.009,-0.013,-0.033,103.0,103.0,102.0,13.4,1505.2,342.3,-0.8,1.8,2471.516,13.29,0.015,214.7
2023-08-21T08:07:03,42.805,6.029,-0.013,-0.01,0.001,103.0,104.0,101.0,13.3,1505.2,336.3,-0.8,1.9,2471.511,13.29,0.016,232.4
2023-08-21T08:10:03,42.805,6.029,0.0,-0.001,-0.022,104.0,103.0,102.0,13.4,1505.2,341.2,-0.8,1.8,2471.518,13.29,0.001,180.0
2023-08-21T08:13:03,42.805,6.029,-0.011,0.003,-0.024,104.0,105.0,100.0,13.4,1505.2,324.6,-0.7,1.8,2471.523,13.29,0.011,285.3
2023-08-21T08:16:03,42.805,6.029,-0.004,0.005,-0.008,104.0,102.0,102.0,13.4,1505.2,331.8,-0.8,1.8,2471.471,13.29,0.006,321.3
2023-08-21T08:19:03,42.805,6.029,-0.008,-0.01,0.0,103.0,103.0,103.0,13.4,1505.2,329.0,-0.7,1.8,2471.514,13.29,0.012,218.7
2023-08-21T08:22:03,42.805,6.029,-0.017,-0.001,-0.037,103.0,102.0,102.0,13.3,1505.2,326.0,-0.7,1.8,2471.522,13.29,0.017,266.6
2023-08-21T08:25:03,42.805,6.029,0.004,0.009,0.017,104.0,104.0,102.0,13.4,1505.2,335.5,-0.8,1.8,2471.53,13.29,0.009,24.0
2023-08-21T08:28:03,42.805,6.029,-0.022,0.0,0.016,103.0,103.0,101.0,13.3,1505.2,327.8,-0.7,1.8,2471.538,13.29,0.022,270.0
2023-08-21T08:31:03,42.805,6.029,-0.009,-0.001,-0.012,105.0,103.0,101.0,13.3,1505.2,341.5,-0.8,1.8,2471.532,13.29,0.009,263.7
2023-08-21T08:34:03,42.805,6.029,-0.017,0.007,-0.023,103.0,104.0,101.0,13.3,1505.2,329.3,-0.8,1.8,2471.494,13.29,0.018,292.4
2023-08-21T08:37:03,42.805,6.029,-0.009,0.008,0.003,103.0,103.0,102.0,13.4,1505.2,347.4,-0.8,1.9,2471.488,13.29,0.012,311.6
2023-08-21T08:40:03,42.805,6.029,-0.026,-0.01,-0.044,103.0,104.0,101.0,13.3,1505.2,339.1,-0.8,1.8,2471.516,13.29,0.027,249.0
2023-08-21T08:43:03,42.805,6.029,-0.002,-0.001,-0.039,104.0,102.0,102.0,13.3,1505.2,336.8,-0.8,1.8,2471.51,13.29,0.002,243.4
2023-08-21T08:46:03,42.805,6.029,0.009,-0.009,-0.014,103.0,103.0,101.0,13.4,1505.2,333.9,-0.8,1.8,2471.513,13.29,0.012,135.0
2023-08-21T08:49:03,42.805,6.029,0.007,0.004,-0.016,103.0,103.0,101.0,13.3,1505.2,323.5,-0.7,1.8,2471.482,13.29,0.008,60.3
2023-08-21T08:52:03,42.805,6.029,0.008,-0.018,-0.021,105.0,102.0,103.0,13.3,1505.2,322.3,-0.8,1.8,2471.507,13.29,0.019,156.0
2023-08-21T08:55:03,42.805,6.029,-0.011,0.011,-0.025,104.0,103.0,101.0,13.3,1505.2,345.3,-0.8,1.8,2471.474,13.29,0.015,315.0
2023-08-21T08:58:03,42.805,6.029,-0.002,-0.016,-0.02,105.0,104.0,101.0,13.4,1505.2,333.4,-0.8,1.8,2471.515,13.29,0.016,187.1
2023-08-21T09:04:03,42.805,6.029,-0.019,0.005,-0.033,103.0,103.0,102.0,13.3,1505.2,349.3,-0.7,1.8,2471.571,13.29,0.019,284.7
2023-08-21T09:07:03,42.805,6.029,-0.017,0.006,-0.027,102.0,103.0,102.0,13.4,1505.2,348.9,-0.8,1.8,2471.539,13.29,0.018,289.4
2023-08-21T09:10:03,42.805,6.029,-0.006,-0.011,-0.057,106.0,103.0,102.0,13.3,1505.2,326.0,-0.8,1.8,2471.543,13.29,0.012,208.6
2023-08-21T09:13:03,42.805,6.029,0.002,-0.001,-0.032,103.0,104.0,101.0,13.4,1505.2,339.3,-0.7,1.9,2471.542,13.29,0.002,116.6
2023-08-21T09:16:03,42.805,6.029,-0.007,0.008,0.013,103.0,102.0,101.0,13.4,1505.2,337.8,-0.7,1.8,2471.489,13.29,0.01,318.8
2023-08-21T09:19:03,42.805,6.029,-0.01,0.0,0.0,103.0,104.0,102.0,13.4,1505.2,347.7,-0.7,1.8,2471.54,13.29,0.01,270.0
2023-08-21T09:22:03,42.805,6.029,-0.017,0.001,-0.031,103.0,103.0,101.0,13.4,1505.2,335.5,-0.7,1.8,2471.524,13.29,0.017,273.4
2023-08-21T09:25:03,42.805,6.029,-0.003,0.003,-0.019,105.0,103.0,102.0,13.4,1505.2,338.3,-0.8,1.8,2471.52,13.29,0.004,315.0
2023-08-21T09:28:03,42.805,6.029,-0.002,0.001,-0.012,103.0,105.0,102.0,13.3,1505.2,351.8,-0.8,1.8,2471.514,13.29,0.002,296.6
2023-08-21T09:31:03,42.805,6.029,0.0,-0.009,-0.017,105.0,102.0,101.0,13.4,1505.2,332.8,-0.7,1.8,2471.517,13.29,0.009,180.0
2023-08-21T09:34:03,42.805,6.029,-0.001,-0.011,-0.029,104.0,103.0,102.0,13.4,1505.2,329.8,-0.8,1.8,2471.504,13.29,0.011,185.2
2023-08-21T09:37:03,42.805,6.029,0.005,0.003,0.004,103.0,104.0,103.0,13.4,1505.2,327.7,-0.8,1.8,2471.5,13.29,0.005,59.0
2023-08-21T09:40:03,42.805,6.029,-0.015,0.009,-0.019,104.0,103.0,102.0,13.4,1505.2,326.3,-0.8,1.8,2471.521,13.29,0.017,301.0
2023-08-21T09:43:03,42.805,6.029,0.0,-0.001,-0.027,104.0,103.0,101.0,13.3,1505.2,331.8,-0.8,1.8,2471.505,13.29,0.001,180.0
2023-08-21T09:46:03,42.805,6.029,-0.017,-0.023,-0.041,103.0,103.0,102.0,13.3,1505.2,331.0,-0.8,1.8,2471.501,13.29,0.028,216.5
2023-08-21T09:49:03,42.805,6.029,0.01,-0.008,-0.003,104.0,104.0,103.0,13.4,1505.2,336.6,-0.7,1.8,2471.517,13.29,0.012,128.7
2023-08-21T09:52:03,42.805,6.029,-0.012,-0.023,-0.019,103.0,103.0,103.0,13.4,1505.2,351.0,-0.8,1.8,2471.525,13.29,0.025,207.6
2023-08-21T09:55:03,42.805,6.029,-0.008,-0.008,0.013,103.0,103.0,102.0,13.3,1505.2,342.3,-0.7,1.8,2471.511,13.29,0.011,225.0
2023-08-21T09:58:03,42.805,6.029,-0.012,-0.006,0.001,104.0,103.0,102.0,13.3,1505.2,332.1,-0.7,1.8,2471.514,13.29,0.013,243.4